Wind_Speed
17 17 17 17 18 18 19 20 20 20 20 21 22 24 26 29 31 33 35 37 39 40 42 43 44 45 45 46 46 47 48 48 49 50 49 49 48 47 46 46 46 47 47 47 46 45 44 43 43 42 40 38 34 32 29 26 23 20 18 17 16 15 14 13 8 6 5 5 3 8 10 9 9 6 8 12 5 4 7 12 15 17 21 23 23 25 27 29
19 19 19 19 19 19 20 21 22 22 23 23 24 24 26 28 31 33 35 37 39 41 43 44 45 46 47 47 47 48 49 49 50 50 51 50 49 49 49 48 48 48 48 48 47 46 45 45 45 44 43 40 37 34 31 28 25 22 20 18 17 16 15 14 11 8 8 7 8 8 10 11 10 10 10 9 5 2 6 10 12 15 19 21 22 23 25 28
22 22 22 21 21 21 21 22 23 24 25 25 26 27 27 28 30 32 35 37 39 41 43 45 46 47 48 48 48 49 49 50 51 51 51 51 51 51 50 50 50 49 48 48 48 47 47 47 47 46 44 42 39 36 33 30 27 25 22 20 18 17 17 17 12 10 11 13 12 11 14 14 13 13 10 8 7 0 4 7 10 13 16 19 21 21 23 26
23 23 23 24 23 24 24 24 25 25 26 27 28 29 30 30 31 32 34 37 40 42 43 45 47 48 49 50 50 50 50 51 52 52 52 52 52 52 52 51 52 51 50 49 49 49 49 49 49 47 45 44 41 38 35 32 29 27 24 21 19 18 18 18 14 11 12 15 16 16 17 16 13 11 9 8 10 3 3 5 9 11 13 16 19 20 21 24
24 24 25 25 26 26 26 27 28 28 29 29 30 31 32 33 33 33 34 36 39 42 44 46 47 49 50 51 52 52 52 52 52 53 53 53 53 53 53 53 53 53 52 51 50 50 50 50 50 48 47 45 43 40 37 34 31 29 27 24 21 20 19 18 15 13 13 16 15 15 15 14 12 10 9 10 12 5 2 4 7 10 11 15 18 18 20 22
26 26 27 28 28 29 29 30 31 32 32 33 33 34 34 35 36 36 36 37 39 42 44 47 48 49 51 52 53 54 54 53 53 54 54 54 54 55 54 54 55 55 55 53 52 51 51 51 51 50 48 46 44 42 39 36 34 31 29 26 23 22 21 18 17 15 14 17 14 13 13 13 13 12 11 13 13 5 2 2 6 10 10 14 16 17 19 20
27 28 29 30 31 32 33 34 34 35 35 36 37 37 37 38 38 39 39 39 40 42 44 46 48 50 51 53 54 55 56 55 55 56 56 55 55 56 56 56 56 56 56 55 54 53 52 53 52 51 49 48 46 44 41 39 36 33 31 28 25 24 22 19 19 16 15 17 15 12 15 15 15 14 13 14 10 4 2 2 5 9 9 12 14 16 18 18
27 28 30 31 33 34 35 36 37 38 38 39 39 40 40 41 41 42 42 42 43 44 44 46 48 50 52 53 55 56 57 57 58 57 57 57 57 57 57 57 57 57 57 57 56 55 54 54 53 52 50 49 48 46 43 41 39 36 33 30 27 25 23 19 20 19 16 18 16 13 15 16 15 14 14 14 9 4 2 1 2 6 8 10 12 14 17 17
29 30 32 33 34 35 36 37 38 39 40 41 41 42 42 43 44 45 45 45 46 47 47 47 48 50 52 54 56 57 58 59 60 60 59 59 59 58 58 59 58 57 58 59 59 57 56 55 54 52 51 50 49 48 46 44 41 38 35 33 30 27 25 22 23 23 19 19 18 16 16 17 15 14 15 14 10 5 2 2 1 4 6 9 10 12 16 15
32 33 35 36 37 38 39 40 41 41 41 42 43 43 43 44 45 47 48 49 49 49 50 50 50 50 52 54 56 57 59 60 61 61 61 61 61 60 60 60 59 59 59 60 60 59 58 56 54 52 51 51 51 50 49 46 43 41 38 35 32 29 28 27 26 25 21 20 19 18 18 18 16 15 16 14 10 7 6 5 3 4 5 7 9 10 14 14
36 37 38 39 41 42 43 44 44 44 43 43 43 44 45 46 46 48 50 51 52 52 52 52 53 52 52 54 56 58 59 61 62 63 64 64 63 63 63 62 61 60 60 60 60 60 59 57 55 53 52 52 53 52 50 48 46 43 40 37 34 31 31 30 27 25 22 21 21 20 19 19 16 16 17 15 11 11 11 8 6 7 5 6 8 9 12 12
41 41 42 43 44 45 47 47 48 47 46 45 45 46 47 48 49 50 51 53 54 55 55 55 55 55 55 55 55 57 60 62 64 65 66 66 66 65 65 64 63 62 62 62 61 59 59 58 57 54 53 54 54 53 52 50 48 46 43 40 36 34 34 31 27 25 24 23 22 21 20 20 18 17 18 16 14 13 12 10 8 9 7 5 7 7 10 11
45 45 45 46 48 49 50 50 50 49 49 48 48 48 49 51 52 53 54 54 56 57 58 59 58 58 57 57 57 59 61 63 65 67 67 67 67 67 66 65 64 64 63 63 61 59 59 61 59 56 55 55 54 54 54 53 50 48 46 43 40 38 35 31 29 27 24 24 24 22 22 21 20 20 19 18 16 15 12 12 11 11 8 5 6 6 8 10
48 48 49 50 52 53 53 53 52 51 50 50 51 51 52 53 55 57 58 58 58 59 61 61 61 61 60 60 61 61 61 63 65 67 67 67 68 68 67 66 66 65 64 63 62 60 60 62 62 60 58 56 55 55 56 55 53 51 49 47 45 42 39 34 31 28 26 26 26 25 25 23 23 23 21 19 19 17 14 13 14 12 9 6 5 5 7 9
52 51 52 54 56 57 56 55 54 53 53 53 54 55 55 56 58 59 60 61 61 62 63 63 64 64 64 63 63 63 63 63 64 66 67 68 68 69 69 68 67 67 65 64 62 61 60 62 64 64 61 58 57 56 57 57 55 54 52 50 48 46 43 39 32 28 31 33 30 29 29 26 27 26 23 21 21 20 16 15 14 13 10 7 4 3 6 7
55 55 56 58 59 59 59 58 57 57 57 57 58 58 59 59 60 61 62 63 64 64 65 65 66 66 67 67 66 64 64 63 63 65 67 69 69 70 71 70 70 69 67 65 64 63 62 62 64 65 63 61 59 58 58 58 57 56 55 53 50 48 46 45 38 29 33 38 33 31 32 29 28 27 25 23 21 20 18 17 16 14 11 8 5 3 4 5
58 58 60 61 62 61 61 61 60 61 61 62 62 61 61 62 62 63 64 64 65 66 67 67 68 68 69 69 68 66 65 64 65 66 67 69 70 71 72 72 72 71 69 67 66 65 64 63 63 64 65 64 62 60 59 59 60 59 57 55 53 51 49 49 46 37 35 40 35 31 32 30 28 27 26 24 21 21 19 18 18 17 13 9 7 4 2 3
61 61 63 64 64 64 64 64 64 65 66 66 65 64 64 63 63 64 64 65 66 67 69 69 69 70 71 71 71 69 68 67 68 68 69 70 71 72 73 73 73 72 70 69 68 67 66 65 63 64 66 66 65 63 62 62 63 61 59 58 55 54 53 51 50 47 42 42 39 35 34 32 29 28 26 24 22 22 20 18 19 18 14 11 9 7 2 1
64 65 66 67 67 67 67 68 69 71 70 69 67 66 64 63 62 63 63 64 66 67 69 71 71 72 72 73 73 73 72 71 71 71 70 71 73 73 74 74 74 73 72 71 70 69 68 67 65 64 66 69 70 69 66 64 63 62 60 59 57 56 55 53 52 51 47 44 43 40 36 33 32 29 27 25 24 24 23 21 21 19 16 13 11 10 6 2
67 68 69 70 70 71 72 73 75 75 73 71 68 65 63 61 60 61 61 63 65 67 69 72 73 73 73 75 76 76 76 74 72 72 72 72 72 74 74 75 75 75 74 73 73 71 70 69 67 68 69 71 73 72 69 65 64 63 61 60 59 58 57 56 54 53 50 47 45 43 39 35 33 31 30 29 27 27 26 25 24 22 18 15 14 14 10 4
70 71 73 74 74 75 76 78 78 78 75 71 66 62 59 57 56 56 57 60 63 66 69 72 74 75 75 77 78 78 78 77 75 74 74 73 72 73 74 75 76 75 76 76 75 74 72 71 71 73 73 72 72 72 70 67 65 65 63 61 61 60 59 57 56 54 53 50 48 47 43 39 35 34 33 31 31 29 27 26 26 25 21 18 17 17 15 9
72 74 76 77 78 79 80 81 81 79 75 68 61 56 53 51 50 51 53 56 60 64 68 71 74 76 77 78 79 80 80 79 78 76 75 75 74 74 75 76 76 77 77 77 77 76 74 74 75 76 74 72 71 71 72 69 67 66 64 63 63 63 61 59 58 56 55 53 52 51 48 44 39 36 34 31 31 32 30 29 28 27 23 20 19 20 19 14
74 76 79 80 81 82 83 83 82 77 69 60 53 48 46 44 44 46 48 51 56 61 66 71 75 77 79 80 81 82 82 81 80 79 77 77 76 76 76 77 78 78 78 78 78 77 77 79 80 77 75 74 72 71 72 71 69 67 66 64 64 64 63 61 59 58 57 56 55 53 51 47 42 38 35 32 32 34 33 31 30 29 26 22 21 22 21 18
76 79 81 82 83 85 85 84 79 70 60 50 44 41 39 38 38 40 43 46 51 57 63 69 74 78 80 82 82 83 83 83 83 82 80 79 78 77 78 78 79 79 79 79 78 79 81 83 81 78 77 76 74 72 72 72 71 70 68 66 66 66 65 63 62 60 60 58 57 56 53 50 44 39 37 35 34 36 35 33 31 30 27 24 24 23 22 19
78 81 83 84 86 87 86 81 71 60 50 43 38 35 33 33 33 35 38 41 45 51 59 66 72 77 80 82 84 84 84 84 84 83 82 80 80 79 79 79 79 80 80 80 79 80 83 83 80 79 78 77 76 74 72 71 72 72 71 70 68 67 66 65 64 62 62 61 60 58 55 51 46 41 39 38 36 35 36 35 34 32 29 28 27 26 23 19
80 83 84 86 88 88 84 74 62 51 43 37 34 32 30 29 29 31 34 37 40 46 53 61 68 74 79 82 84 85 85 85 85 85 84 82 81 81 80 80 80 81 81 80 80 81 83 83 81 80 80 78 77 76 73 71 71 73 74 73 70 68 67 66 66 65 64 63 61 59 57 53 50 44 41 40 38 36 34 34 35 35 33 31 30 28 26 21
82 84 85 88 89 86 77 64 53 45 39 34 32 30 28 27 27 28 30 33 36 40 46 54 62 69 76 81 84 85 86 86 86 86 85 84 83 82 82 82 81 81 81 81 81 82 83 83 83 82 81 80 78 77 76 73 71 73 77 76 73 70 69 68 68 67 65 64 61 60 59 56 54 50 44 41 40 39 37 35 35 35 34 33 32 30 27 23
83 85 87 89 89 82 69 56 46 40 35 32 29 28 26 25 24 25 27 29 32 36 41 47 55 63 70 77 81 85 87 87 87 87 86 86 85 84 84 84 83 82 82 82 82 84 84 84 84 83 81 80 80 80 79 76 74 75 77 78 76 74 71 70 69 68 66 64 62 62 61 59 58 55 49 43 41 40 39 38 37 35 34 34 34 31 27 23
85 87 88 89 87 76 61 49 42 36 32 28 26 25 24 23 22 23 24 26 29 32 37 42 48 55 63 71 77 82 86 87 88 87 87 87 87 86 86 86 84 83 83 83 84 84 84 83 83 82 81 81 82 83 80 78 78 79 78 78 79 77 74 72 71 70 68 66 64 63 63 62 61 60 55 47 43 41 38 38 37 37 36 35 33 31 28 24
86 88 89 90 84 69 55 46 39 33 29 25 23 22 21 21 20 21 21 23 26 30 34 38 43 49 56 65 72 78 83 86 88 88 89 89 88 88 87 87 85 84 83 84 85 84 83 82 81 81 81 82 84 84 82 81 82 81 79 78 79 78 76 73 72 71 68 67 66 65 65 65 63 62 60 53 48 44 41 39 38 38 38 35 32 31 30 27
87 89 90 89 80 64 51 43 37 31 26 22 20 18 17 17 18 18 19 21 23 27 30 34 38 44 50 59 66 73 78 83 87 88 89 89 89 88 87 87 86 85 84 85 86 84 83 81 81 81 82 85 86 86 85 84 84 82 79 78 78 78 77 75 72 70 68 68 68 67 66 66 65 64 63 59 54 49 46 43 41 40 39 36 33 32 30 28
88 89 90 88 75 59 48 41 35 29 25 21 17 15 14 15 16 16 17 19 21 23 27 30 34 39 44 51 59 66 72 78 83 86 88 89 89 89 88 87 87 86 85 86 87 85 83 82 82 82 84 86 88 87 87 86 84 82 80 79 77 77 77 76 73 70 69 70 71 70 68 67 67 65 63 61 59 55 52 48 45 43 41 38 36 35 33 30
89 89 90 86 71 56 46 39 32 27 23 20 16 14 13 13 14 15 15 17 18 20 23 27 31 35 40 45 52 59 66 72 77 82 86 88 89 89 90 89 89 89 87 88 89 88 85 84 84 84 85 86 87 87 87 87 85 83 82 80 78 76 75 75 74 72 72 74 74 72 69 68 68 66 62 62 61 59 56 53 50 47 44 42 39 37 35 33
89 89 90 84 68 53 45 37 30 26 22 18 15 14 13 13 14 14 15 16 17 18 20 24 28 32 37 42 47 53 59 65 72 78 82 86 89 90 90 90 91 90 89 89 89 88 87 85 85 86 86 86 86 87 88 89 88 86 84 83 81 78 76 75 76 76 79 80 76 73 71 69 69 67 65 63 61 59 59 57 55 52 48 45 43 40 37 35
89 89 90 82 66 52 43 35 29 24 19 16 14 13 14 14 14 14 15 16 16 18 19 22 25 30 35 40 44 49 55 60 66 73 78 83 87 89 90 91 91 91 90 90 89 88 88 87 87 87 87 86 86 88 89 90 89 88 87 84 82 80 78 78 78 80 84 83 78 74 72 71 71 69 67 66 63 61 60 58 56 55 53 49 47 44 40 38
89 89 89 81 65 51 42 35 28 23 18 15 14 13 14 15 14 14 15 16 17 19 21 23 25 28 32 37 42 47 52 57 62 68 74 80 84 87 89 90 91 91 91 90 90 89 90 90 88 88 87 87 87 88 89 90 90 89 87 85 83 83 83 82 81 81 83 83 78 75 74 74 73 71 69 67 66 65 63 62 59 57 56 54 51 49 45 42
89 89 89 81 64 50 42 34 28 23 19 16 15 14 14 14 14 14 15 18 21 23 24 25 28 30 32 34 39 45 50 54 59 64 70 76 81 86 88 90 91 91 91 91 91 90 91 92 91 89 88 89 89 88 88 90 91 90 88 87 87 88 86 85 84 82 82 81 79 78 77 76 74 72 70 69 69 68 67 66 64 61 59 57 55 53 50 47
89 89 89 81 64 50 42 34 28 23 19 16 15 14 14 14 14 15 18 22 25 27 27 29 31 33 34 34 37 42 48 52 58 62 67 73 78 84 87 90 91 91 92 92 91 90 91 92 92 91 90 90 90 90 90 90 91 91 90 90 90 90 88 86 85 84 82 80 80 80 79 78 76 74 72 71 70 71 70 68 67 65 62 60 58 56 54 51
88 89 88 81 64 50 42 34 28 24 20 17 15 13 13 14 16 18 21 24 27 29 29 30 32 35 36 36 37 40 45 51 56 60 65 70 75 80 85 89 91 92 92 92 92 91 92 92 92 92 92 91 91 92 92 91 91 91 91 91 90 89 88 88 87 86 84 82 81 80 80 79 78 76 75 73 72 71 71 70 68 67 65 63 61 59 57 55
87 88 88 80 65 51 43 35 29 26 22 18 15 13 13 15 17 20 23 26 28 29 30 29 30 33 36 38 39 41 43 48 53 58 62 67 72 76 81 86 89 92 93 93 92 92 92 92 92 93 94 92 92 93 94 93 92 91 91 90 90 90 89 89 87 87 86 84 82 81 79 79 80 79 78 76 74 73 72 71 70 68 67 66 64 62 59 58
87 88 87 81 66 51 42 35 30 26 22 18 16 15 15 17 18 21 25 28 30 30 29 27 27 29 33 37 40 42 43 46 51 56 60 65 69 73 77 82 86 89 92 93 93 92 92 93 94 94 95 94 94 94 94 94 94 93 92 91 91 91 90 88 88 87 86 85 83 81 79 78 80 81 81 79 77 75 74 73 72 70 69 68 66 65 62 60
86 87 86 80 67 52 42 35 29 26 23 20 17 17 17 18 20 22 26 30 32 31 29 25 23 24 28 34 40 43 44 45 48 52 57 62 66 70 74 78 83 86 89 92 94 94 93 93 94 95 95 96 95 94 94 95 95 94 93 91 90 90 89 88 88 87 86 85 84 81 80 78 79 80 81 81 79 78 76 76 74 72 71 70 68 66 64 63
86 87 85 81 69 53 42 35 29 25 23 21 20 19 19 20 22 25 28 32 33 31 27 23 20 20 23 29 37 42 45 45 46 50 54 58 62 67 71 75 80 83 87 90 92 94 93 93 94 95 96 96 96 96 96 96 96 95 94 92 91 90 89 89 88 87 87 86 85 82 81 79 79 79 80 81 81 79 78 77 77 74 73 71 69 67 66 65
86 87 85 81 70 55 43 36 30 25 23 22 21 21 21 22 24 26 30 33 34 30 26 21 18 17 19 24 31 39 44 47 47 49 51 55 59 64 68 73 77 80 84 87 90 92 93 94 95 96 96 96 97 98 98 97 96 96 95 93 91 90 89 89 89 89 88 88 86 84 82 81 81 81 80 80 80 79 79 79 79 77 75 73 71 69 68 67
86 87 85 81 72 57 45 39 33 27 24 23 23 23 24 24 25 27 32 35 34 30 25 20 17 15 16 20 26 34 41 46 49 50 51 54 57 61 66 70 75 78 81 84 87 89 91 93 95 97 97 97 98 99 100 99 97 95 95 94 92 90 89 89 89 89 88 88 87 85 83 83 83 82 81 80 79 79 79 79 79 79 78 76 74 72 70 69
85 87 85 80 73 59 46 40 35 29 25 24 25 25 25 26 27 29 32 35 34 30 25 20 16 14 14 16 21 27 36 43 48 51 52 54 56 59 63 67 72 76 79 81 84 86 89 91 93 96 98 99 99 100 101 100 97 95 93 93 93 92 91 89 89 89 89 89 88 86 85 85 85 84 83 82 81 80 79 79 79 80 79 78 76 74 72 71
85 86 84 80 73 60 48 40 34 29 26 25 25 26 26 27 28 30 33 35 34 29 25 21 17 15 14 14 17 22 29 37 44 49 53 55 56 57 60 64 68 73 76 79 81 84 86 89 91 95 98 99 99 99 100 99 98 95 94 93 93 93 92 90 89 89 89 89 88 87 86 86 86 86 85 84 83 82 80 79 78 79 79 79 77 75 74 73
84 85 84 80 73 61 49 40 33 29 27 26 25 26 26 27 30 31 34 36 34 29 24 21 18 15 13 13 15 18 23 30 37 45 51 54 56 57 59 62 65 69 73 76 79 81 84 87 90 92 95 97 97 98 98 99 98 97 95 94 93 93 92 91 90 90 89 89 89 87 87 87 87 87 87 86 85 84 83 81 80 78 78 78 78 76 75 74
83 84 83 80 74 63 50 41 34 29 27 26 25 26 26 27 30 32 34 36 35 29 25 21 18 15 14 12 12 15 19 25 31 38 46 52 56 57 59 61 64 67 70 73 76 79 81 84 87 90 93 94 95 97 99 99 99 99 97 95 94 93 92 92 92 91 90 89 89 88 87 87 87 87 87 86 86 85 85 84 82 81 79 78 78 77 75 74
82 84 83 80 74 64 51 41 34 29 26 25 25 25 26 26 29 32 35 37 35 29 25 22 18 15 13 12 10 11 15 20 25 32 39 47 53 57 59 61 63 65 68 71 74 76 79 82 84 86 89 91 92 95 97 98 99 99 98 96 95 94 93 93 93 92 91 90 89 87 86 86 87 88 88 87 86 86 86 86 86 84 82 80 79 77 76 74
82 83 82 79 75 65 52 41 35 30 27 25 25 25 25 25 28 32 35 37 35 29 24 22 19 14 12 11 10 10 12 16 20 26 32 39 47 53 58 61 63 65 67 69 72 74 77 80 82 83 85 87 89 92 95 97 98 98 98 98 97 96 95 94 93 93 92 91 90 88 86 85 86 88 88 88 88 88 87 87 87 86 84 83 81 79 77 75
81 83 82 79 74 66 53 42 35 31 28 26 25 24 24 24 26 30 33 36 36 30 23 21 19 15 11 9 9 9 11 13 16 21 26 32 39 47 54 59 62 65 67 68 70 73 75 78 80 81 83 85 86 88 92 96 98 98 99 99 99 98 98 96 94 93 92 91 91 90 88 87 87 88 89 89 90 90 89 88 87 86 86 85 84 82 80 78
Wind_Direction
305 301 299 296 294 292 289 287 285 282 280 276 270 265 260 256 250 245 241 240 240 240 239 237 235 234 232 230 228 227 226 226 225 224 223 222 222 222 220 219 220 220 219 219 219 220 219 220 220 221 222 223 222 221 221 219 218 218 215 211 207 207 200 191 179 149 141 142 178 255 256 239 218 225 284 289 301 58 54 52 44 39 42 38 35 38 39 39
305 302 299 296 293 290 287 285 282 280 278 276 273 269 264 259 255 251 245 241 239 239 239 238 236 234 234 232 230 228 227 227 225 224 223 222 222 222 221 220 220 220 219 219 219 220 220 219 220 220 221 222 222 221 220 219 218 218 216 213 208 206 198 190 179 139 115 136 164 199 213 204 210 240 262 272 282 67 61 51 41 32 37 36 34 37 39 38
306 303 299 296 293 289 286 283 281 278 276 274 272 270 267 263 258 255 251 246 242 239 238 238 237 235 234 233 231 229 228 228 226 225 224 222 222 222 222 221 221 221 219 219 219 220 221 220 219 219 220 222 222 221 220 219 218 218 217 214 208 204 199 194 181 150 136 144 162 184 198 201 214 238 242 248 260 190 63 40 35 25 29 34 32 35 38 38
303 300 297 294 290 286 283 280 278 276 274 273 271 268 266 264 260 257 253 251 247 242 239 237 237 236 234 233 233 231 229 229 228 226 224 223 222 223 222 222 222 222 220 219 220 220 220 220 219 219 220 222 222 222 220 219 219 218 218 214 209 204 201 199 184 166 158 159 175 186 197 209 215 230 226 230 253 245 54 13 24 21 23 31 30 32 37 38
304 301 297 294 290 286 282 279 276 274 273 271 270 268 266 264 261 258 255 252 250 247 243 239 236 236 235 233 232 232 230 229 228 227 225 223 222 222 223 222 222 223 221 220 220 220 220 220 219 219 219 221 222 222 220 219 219 218 218 214 209 204 203 201 187 176 171 172 190 200 201 205 208 224 222 229 244 227 76 1 13 18 22 27 27 31 34 37
308 306 303 300 296 292 287 283 279 275 272 270 268 267 266 265 263 260 257 254 251 249 247 243 239 236 235 235 233 232 231 229 228 228 226 224 223 222 222 222 222 223 222 220 219 220 220 220 220 219 219 220 221 222 221 220 219 218 217 214 209 205 203 201 190 185 183 181 193 212 209 200 202 215 223 234 231 192 78 8 15 16 23 22 23 29 32 35
311 309 307 305 302 298 295 291 286 282 277 272 269 267 264 264 263 261 258 255 253 250 248 246 243 239 236 235 234 232 231 230 229 228 227 225 224 223 222 222 222 223 223 221 220 219 220 220 220 219 219 219 221 221 221 220 219 217 217 215 209 205 203 201 195 192 191 190 191 203 210 209 206 205 218 238 226 162 77 25 15 12 19 16 18 25 30 33
311 308 306 304 302 300 298 295 292 288 283 278 273 269 266 263 261 260 259 257 254 252 249 247 245 243 239 235 234 233 232 230 229 228 227 226 225 224 223 223 222 222 223 222 220 220 220 220 220 219 218 219 220 220 220 219 219 217 216 215 210 206 201 200 204 200 193 195 194 193 205 215 212 202 212 239 237 172 107 53 347 1 9 8 12 22 28 31
310 309 307 305 303 301 300 298 295 291 287 282 277 272 269 265 262 259 257 256 255 253 250 248 245 243 241 238 235 234 232 231 230 229 227 226 225 224 224 223 222 222 222 222 220 220 219 219 219 219 218 218 219 219 219 219 218 217 216 214 210 206 199 198 208 207 197 194 193 189 196 209 211 207 213 233 240 212 167 195 266 338 350 358 3 16 26 30
312 310 309 307 305 303 302 300 298 294 289 284 279 274 270 266 263 260 257 254 253 253 251 248 246 243 241 240 237 235 233 231 230 229 228 226 225 224 224 224 223 222 222 222 221 220 219 219 219 219 219 219 219 219 219 219 218 217 216 214 210 206 201 199 206 207 201 197 195 191 197 205 206 209 216 226 236 235 230 217 229 294 318 344 351 9 22 29
314 311 309 308 306 305 303 301 299 296 292 286 280 275 270 267 263 261 258 255 252 250 250 249 247 243 241 240 239 236 234 232 231 229 228 227 225 224 224 224 223 223 222 222 221 220 219 219 220 220 219 219 219 219 219 218 218 217 216 215 211 207 205 203 206 208 204 201 199 196 202 210 207 207 214 220 227 229 233 231 236 263 284 324 337 2 17 26
315 313 310 308 307 306 304 302 299 297 293 288 282 276 271 267 264 261 258 256 253 249 248 247 247 244 241 239 238 237 235 233 231 229 228 227 225 223 223 223 223 223 222 222 221 220 219 220 220 219 219 219 219 218 218 217 217 217 215 214 209 206 208 206 206 211 210 206 201 197 201 209 206 206 214 219 223 224 229 235 239 248 257 300 329 352 13 27
316 313 311 309 308 307 305 302 300 297 293 289 283 278 272 267 264 262 259 256 254 250 247 245 245 244 242 240 237 236 235 233 232 230 228 228 227 225 223 223 223 222 222 222 221 220 220 220 220 220 219 219 218 218 218 217 216 216 215 213 209 206 205 203 205 208 210 212 208 200 200 204 202 205 214 218 219 220 223 227 232 237 240 280 321 339 8 27
316 314 312 310 309 308 305 303 300 297 293 289 284 279 273 268 264 261 259 256 254 251 248 245 243 243 242 240 237 235 234 233 233 231 229 228 228 227 224 223 223 222 222 221 221 221 220 220 220 220 219 218 218 218 218 217 216 216 215 213 209 206 202 199 203 206 206 209 208 205 203 202 202 206 214 217 218 218 216 219 225 227 231 259 301 329 4 26
317 315 313 311 310 308 306 304 300 297 293 289 285 280 274 269 264 261 258 256 254 252 249 246 243 242 241 240 238 235 233 233 233 232 230 228 227 227 226 224 223 223 222 221 221 221 221 220 220 220 219 218 218 218 218 217 216 215 215 214 211 209 204 198 199 205 208 208 204 204 204 200 202 207 213 217 222 222 217 218 221 221 229 248 269 315 356 24
318 316 314 313 311 309 307 304 301 297 294 290 286 281 275 270 266 262 258 255 253 251 249 247 243 241 240 240 238 236 234 232 232 232 231 228 227 226 226 225 223 222 221 221 221 222 222 221 221 220 219 218 218 218 218 217 216 215 214 214 213 210 207 202 199 200 209 209 205 205 205 203 205 209 212 216 225 228 222 220 223 225 232 237 236 273 346 18
319 317 316 314 313 311 308 306 303 299 296 292 287 282 277 272 267 263 259 255 252 249 248 246 243 240 238 238 238 237 234 232 231 231 230 229 227 226 226 225 223 222 221 221 221 221 222 222 221 220 220 219 218 217 218 218 216 214 213 214 213 211 209 206 204 202 206 207 205 205 205 206 208 209 210 212 223 231 228 222 225 231 234 226 220 233 322 11
320 318 318 316 315 313 311 309 306 302 298 294 289 284 279 274 269 264 259 255 251 247 245 244 242 240 237 236 236 235 233 231 230 229 228 228 227 225 225 225 224 222 221 221 221 221 221 221 221 221 220 220 219 218 218 218 217 214 213 214 214 213 211 209 207 206 208 207 206 205 204 204 205 206 205 206 215 228 227 221 225 231 231 222 215 218 246 344
321 321 320 319 317 316 314 312 309 305 301 296 292 286 281 276 270 264 259 254 249 245 242 241 240 238 236 234 233 233 232 230 229 228 227 227 226 225 224 223 223 222 222 221 221 221 221 221 221 221 221 220 219 218 217 218 216 214 214 214 214 214 213 211 208 207 208 209 208 208 206 202 201 201 201 201 207 222 226 220 223 228 227 224 217 216 226 279
323 323 322 321 320 319 317 314 311 307 303 300 295 289 283 278 271 264 258 252 247 243 239 237 236 236 234 233 231 231 231 230 229 228 227 226 226 225 224 223 222 222 221 221 221 221 220 220 220 221 221 220 218 218 217 217 216 215 213 213 214 214 214 212 210 208 207 208 210 210 209 205 201 199 200 199 201 216 226 221 221 225 223 225 226 226 231 247
325 325 324 323 322 321 319 316 313 309 306 303 297 291 285 278 271 263 256 250 244 240 236 234 233 232 231 231 230 229 229 228 227 227 226 225 225 225 224 223 222 221 221 220 220 220 219 220 221 221 221 221 219 218 218 217 216 215 213 213 214 214 214 213 212 210 208 208 209 210 211 208 203 200 201 201 200 207 218 219 220 222 224 228 232 234 235 239
327 327 326 325 324 322 321 318 315 312 309 304 298 291 284 277 269 261 254 247 241 236 233 230 229 228 228 228 228 228 227 227 226 226 225 224 223 224 223 222 221 220 220 220 220 219 219 219 221 221 221 220 219 218 218 217 217 216 214 213 214 214 214 213 212 211 209 209 209 209 210 209 206 202 201 204 206 207 213 218 222 227 231 233 231 233 237 238
329 328 328 326 325 324 322 320 317 314 310 304 297 290 282 274 266 258 251 244 238 233 229 227 225 225 225 225 225 226 225 225 225 225 224 223 223 222 222 222 221 220 219 219 219 219 219 220 220 220 220 220 219 218 218 217 217 217 216 214 214 214 214 213 213 212 210 210 210 209 210 209 207 205 204 205 209 212 216 220 225 231 233 229 226 229 236 239
331 330 329 328 327 326 324 321 318 314 310 304 296 288 280 271 264 257 250 242 237 232 228 225 223 222 222 223 223 224 224 224 223 223 223 223 222 222 221 221 220 219 218 218 218 218 219 220 220 219 219 219 219 219 217 216 217 217 217 215 214 214 214 214 214 213 211 211 210 210 210 210 207 206 208 208 209 213 219 223 227 229 226 223 223 226 232 237
332 332 330 329 329 327 325 323 319 315 310 303 295 287 279 271 263 256 250 243 237 232 228 224 222 220 220 220 221 222 223 223 222 222 222 222 221 221 221 221 221 220 218 217 217 218 219 220 220 219 219 219 219 219 218 216 217 218 218 217 215 214 214 214 214 214 212 212 211 210 210 210 207 206 209 210 210 212 217 221 224 223 220 221 224 224 226 231
333 333 332 332 331 329 326 324 320 315 310 304 296 288 280 272 265 257 251 244 238 233 229 225 222 219 218 218 219 220 220 221 221 221 221 221 221 221 220 220 220 220 219 217 217 217 219 220 219 219 219 219 219 219 218 217 217 218 219 219 216 214 214 214 215 215 213 213 212 210 210 210 209 208 209 209 209 210 214 217 220 221 221 223 224 222 224 229
334 334 334 333 332 330 327 324 321 316 311 305 297 290 281 273 266 259 252 245 239 234 231 227 223 220 218 217 218 218 218 219 220 220 220 220 220 220 220 220 219 219 218 217 217 217 218 219 219 219 219 219 219 220 219 217 217 219 220 219 217 215 214 214 216 216 215 214 213 212 211 210 210 211 210 209 209 211 214 215 217 221 222 222 222 221 222 226
335 335 336 335 334 332 329 326 322 317 312 306 299 291 284 276 268 259 252 246 240 235 231 228 225 222 219 218 217 217 217 218 218 219 219 219 219 219 219 219 219 218 218 217 217 217 218 218 218 219 219 219 219 220 219 217 218 219 220 219 218 216 214 214 215 216 216 215 214 213 213 211 211 212 211 209 209 211 214 216 217 219 219 220 222 222 220 219
337 337 337 337 335 333 330 327 324 320 314 307 300 293 286 279 270 260 251 245 240 236 231 228 226 223 221 219 218 217 217 216 216 217 218 218 218 218 218 219 218 218 217 217 218 218 218 218 219 219 219 219 220 220 219 218 219 219 219 218 218 217 216 215 215 215 216 216 215 215 214 213 212 213 213 211 208 209 211 213 215 217 218 219 221 223 219 216
338 339 339 339 338 335 332 330 327 322 317 310 303 294 286 279 270 261 252 244 239 236 233 229 226 224 222 220 218 218 217 216 216 216 216 217 218 218 218 218 218 218 217 217 218 218 217 217 218 218 218 219 220 221 220 219 220 220 218 218 218 218 217 216 215 215 215 216 216 216 216 215 214 214 214 213 211 210 210 210 211 215 219 219 220 223 223 220
340 341 341 341 340 337 334 332 330 325 319 313 305 296 286 278 270 263 256 246 239 236 235 231 228 225 224 222 220 219 218 217 216 215 215 216 217 218 218 218 218 218 217 217 218 218 217 217 217 217 217 219 220 220 220 220 220 220 219 218 218 218 218 217 216 215 215 217 218 217 217 217 216 216 215 215 213 213 215 214 213 216 220 220 219 221 224 223
342 342 343 343 342 339 336 334 331 327 322 316 308 298 288 278 271 265 258 252 244 237 234 232 230 227 225 224 222 220 219 218 217 216 215 215 216 217 217 217 217 217 217 217 217 217 217 216 217 217 218 218 219 220 220 221 220 219 219 219 219 219 219 218 217 216 217 219 218 218 217 217 218 217 217 218 216 215 217 217 217 219 220 221 220 220 223 224
344 344 345 345 344 341 338 336 333 329 324 319 311 300 290 279 272 266 260 256 250 242 237 233 231 228 226 224 223 222 220 219 218 216 215 215 215 216 216 216 216 216 216 217 217 216 216 215 216 217 218 219 219 220 221 221 220 219 219 219 219 219 219 219 218 217 219 220 219 218 218 219 219 217 217 220 219 217 218 218 219 220 222 223 222 222 224 226
345 346 347 347 345 342 340 337 334 330 326 320 312 302 293 283 276 272 267 262 258 252 245 238 234 231 228 225 223 222 221 220 219 217 216 215 215 215 216 216 216 215 215 216 216 216 215 215 216 217 217 218 219 220 220 221 220 219 219 219 218 218 219 219 218 218 220 221 219 217 218 219 220 217 217 220 220 219 220 220 221 222 224 226 226 226 228 230
346 348 349 349 347 344 341 338 334 331 326 319 309 299 290 283 277 273 271 268 265 262 256 250 243 236 231 227 224 223 221 220 220 218 216 215 215 215 215 215 215 215 216 216 216 216 215 215 216 217 217 218 219 219 220 221 220 219 218 218 218 218 218 218 218 219 220 220 218 217 218 220 220 218 217 219 220 220 220 222 223 223 224 227 228 230 230 232
348 349 350 350 348 345 342 339 335 331 327 320 309 297 288 281 276 270 269 269 268 266 263 260 255 247 238 231 227 225 222 220 220 219 218 216 215 215 215 215 215 215 215 216 216 215 215 215 216 216 216 217 219 219 220 221 220 219 218 218 218 218 218 218 218 220 221 219 217 218 219 220 220 219 218 219 220 221 221 222 225 225 225 227 228 230 230 231
349 350 351 351 349 346 344 340 335 332 328 320 310 300 289 280 275 270 268 269 269 268 266 263 260 256 248 238 230 227 224 221 220 220 219 217 216 215 214 215 215 216 215 215 215 215 215 215 215 216 216 217 218 219 220 221 220 219 218 217 218 218 218 218 219 220 221 219 218 218 220 221 221 219 219 220 221 222 222 223 225 226 227 228 229 230 230 231
349 351 352 352 350 347 345 340 336 332 327 320 311 303 295 287 280 274 269 269 271 270 268 265 261 258 253 245 236 230 226 223 221 219 219 218 217 216 215 215 215 216 216 215 215 215 215 216 216 216 216 217 218 219 220 221 220 220 218 217 218 218 218 218 219 220 221 219 218 218 220 222 221 220 221 221 222 223 224 224 225 226 228 229 230 232 232 232
350 352 353 353 351 348 345 341 336 333 329 322 314 304 295 286 280 278 276 277 277 277 274 269 262 257 252 248 240 233 227 224 222 220 219 219 218 217 216 216 215 215 215 215 215 215 216 216 216 216 216 217 218 219 220 220 221 220 219 218 218 218 218 219 219 220 220 219 218 218 220 221 222 222 222 222 223 224 225 225 226 227 228 228 230 231 232 233
351 352 354 354 352 348 346 342 337 333 329 323 313 300 290 287 287 287 288 288 287 286 282 274 264 255 249 245 241 235 229 225 223 221 219 219 219 218 217 217 217 216 216 215 215 216 216 216 216 216 217 217 218 219 219 220 221 220 220 219 218 218 218 219 220 221 221 219 218 218 219 220 221 222 223 223 224 225 226 227 227 227 228 228 229 230 231 232
352 353 354 354 352 349 346 343 338 333 328 320 311 302 300 299 298 298 299 300 300 298 293 283 269 254 244 239 237 235 230 225 222 222 220 219 218 218 218 217 218 218 217 217 216 215 216 216 216 216 217 217 218 219 219 220 221 221 220 219 218 218 218 219 220 221 222 221 220 219 219 220 221 222 223 224 224 225 226 227 227 227 228 228 229 230 230 231
353 354 354 355 353 350 346 343 338 332 326 320 314 310 307 306 307 308 311 313 312 309 303 293 276 257 243 235 232 231 230 226 222 221 220 220 219 218 218 218 218 218 219 218 218 216 216 216 217 217 217 218 219 219 220 220 221 221 221 219 219 218 218 218 219 221 222 222 221 220 220 221 221 222 223 224 225 225 226 227 228 228 228 229 229 230 231 232
353 354 355 355 353 350 346 342 338 331 325 321 318 315 313 314 317 319 321 322 321 318 312 301 283 262 243 232 228 227 227 226 222 220 219 219 219 218 218 218 218 218 219 219 219 218 217 217 217 217 217 218 219 219 220 221 221 222 221 220 219 218 217 217 218 219 221 222 222 221 221 221 222 223 224 224 225 226 227 228 229 229 228 229 229 230 230 231
353 354 355 355 353 350 346 342 339 332 326 323 321 321 321 323 325 326 329 330 329 326 320 309 292 270 248 233 226 223 223 223 222 219 218 218 218 217 217 217 218 218 219 219 220 220 219 218 218 218 218 218 219 219 220 221 221 222 222 221 220 219 218 217 218 218 220 221 222 221 222 223 223 223 223 224 225 226 227 228 229 230 229 229 229 229 230 231
353 354 355 355 353 350 345 342 340 336 329 325 326 327 327 327 329 332 335 337 336 333 328 317 303 283 258 239 228 223 220 220 221 219 217 216 217 217 216 216 217 218 218 219 220 220 220 220 219 219 218 218 219 220 220 221 222 222 223 222 221 220 219 218 218 218 219 221 221 220 221 223 224 224 224 225 225 225 226 227 229 230 230 229 229 229 229 230
353 354 354 354 353 350 345 342 341 337 331 327 328 329 329 330 333 336 340 342 342 340 334 326 312 294 271 249 234 226 222 219 219 219 218 216 216 216 216 216 216 217 218 219 220 220 220 220 221 221 220 219 219 220 221 221 221 222 223 223 223 222 220 219 218 218 219 221 221 220 221 222 224 224 224 225 225 225 226 227 228 229 230 230 230 230 230 230
353 353 354 354 353 350 345 342 340 335 329 327 328 329 330 332 335 339 343 346 347 345 340 333 320 304 283 261 243 233 226 222 220 218 218 217 216 215 215 216 216 217 218 218 219 220 221 221 221 222 222 221 220 221 222 222 222 222 223 223 223 223 222 221 219 219 219 220 221 220 221 222 224 224 224 225 225 226 226 227 228 229 230 230 230 230 231 231
352 353 353 354 353 350 345 342 340 334 328 327 327 328 330 334 337 340 344 349 350 348 345 340 328 312 295 272 252 240 232 226 222 219 218 218 217 215 215 215 216 216 217 217 218 219 220 221 221 222 223 223 222 222 222 222 222 222 223 223 223 223 223 222 221 220 219 220 220 220 221 222 223 224 224 225 225 226 226 227 227 228 230 230 230 230 231 232
352 353 353 353 353 350 346 342 340 334 328 327 327 327 330 334 337 340 344 349 351 350 348 346 335 319 305 285 260 245 237 232 226 222 219 218 218 216 215 215 216 216 216 216 217 218 219 221 221 222 223 223 222 222 223 223 222 222 222 223 224 224 223 223 222 221 220 220 221 220 221 222 223 224 225 225 226 226 227 227 227 227 228 229 230 230 230 231
352 353 353 353 352 350 346 342 339 334 327 326 326 326 329 333 337 340 344 348 350 351 351 350 343 328 313 299 277 254 242 237 232 226 222 219 218 218 216 215 216 216 216 216 216 217 218 220 221 222 223 223 222 223 223 224 224 223 223 223 224 224 224 224 223 222 221 221 221 221 221 222 223 224 225 225 226 227 227 228 227 227 227 228 228 229 230 230
351 352 352 352 351 350 346 341 338 333 327 326 327 326 327 332 337 341 343 345 348 351 352 352 348 338 324 310 293 270 251 242 237 232 226 222 220 219 218 216 216 216 217 216 216 217 218 219 220 220 222 222 222 222 223 224 224 224 223 223 223 224 224 223 223 223 222 222 222 222 222 223 224 224 225 225 225 226 227 228 228 227 227 227 228 228 228 229
350 351 352 351 350 349 346 341 337 332 327 326 326 326 327 331 337 340 341 343 346 348 351 353 350 345 337 322 301 281 262 249 243 237 232 226 222 219 218 218 217 216 217 217 216 216 217 219 219 219 220 221 221 222 223 224 223 223 223 223 223 224 224 224 223 223 223 222 222 222 223 223 224 225 225 225 226 226 226 228 229 229 228 228 228 228 228 228
Height
10916 10915 10915 10914 10914 10913 10913 10912 10912 10911 10911 10911 10911 10911 10910 10910 10910 10911 10912 10913 10914 10916 10917 10919 10921 10923 10925 10927 10929 10932 10934 10936 10938 10941 10945 10947 10950 10953 10955 10958 10959 10961 10965 10967 10970 10972 10975 10977 10980 10983 10985 10988 10992 10994 10997 10999 11002 11004 11005 11007 11008 11010 11011 11012 11013 11015 11016 11016 11017 11018 11018 11019 11020 11021 11021 11021 11021 11020 11020 11019 11019 11020 11018 11017 11016 11014 11013 11011
10914 10914 10913 10912 10912 10911 10910 10910 10909 10909 10908 10908 10907 10907 10907 10907 10907 10907 10908 10908 10909 10911 10912 10914 10916 10918 10921 10923 10925 10927 10930 10932 10934 10937 10940 10944 10947 10949 10951 10954 10955 10958 10961 10964 10967 10969 10971 10974 10977 10980 10983 10986 10989 10992 10995 10998 11000 11002 11004 11006 11007 11009 11010 11011 11012 11014 11015 11016 11016 11017 11018 11020 11021 11021 11021 11021 11021 11021 11021 11020 11021 11021 11019 11018 11017 11016 11014 11012
10913 10912 10911 10911 10910 10909 10908 10907 10907 10906 10905 10905 10904 10904 10904 10904 10904 10904 10904 10904 10905 10905 10907 10908 10911 10913 10915 10918 10920 10923 10925 10927 10930 10933 10936 10940 10943 10945 10947 10951 10952 10954 10958 10961 10964 10966 10968 10971 10974 10977 10981 10984 10987 10991 10994 10996 10999 11001 11003 11005 11006 11008 11009 11010 11011 11013 11014 11015 11016 11017 11018 11019 11020 11021 11021 11021 11021 11022 11021 11021 11022 11022 11021 11020 11018 11017 11016 11013
10911 10910 10909 10908 10908 10907 10906 10905 10904 10903 10902 10902 10901 10900 10900 10900 10900 10900 10900 10900 10900 10901 10902 10903 10905 10907 10910 10912 10915 10918 10920 10922 10925 10928 10931 10935 10938 10941 10944 10947 10949 10951 10954 10957 10960 10962 10965 10968 10971 10975 10979 10982 10985 10988 10992 10995 10997 10999 11001 11003 11005 11006 11008 11009 11011 11012 11013 11014 11014 11015 11016 11018 11019 11020 11021 11021 11022 11022 11022 11022 11023 11023 11022 11021 11020 11019 11017 11015
10908 10907 10906 10905 10904 10904 10903 10902 10901 10900 10899 10898 10897 10897 10896 10895 10895 10896 10896 10897 10896 10896 10897 10898 10900 10902 10904 10906 10909 10912 10915 10917 10920 10923 10927 10930 10933 10936 10939 10942 10945 10946 10950 10953 10956 10958 10962 10965 10968 10972 10976 10979 10983 10986 10989 10993 10995 10998 11000 11002 11004 11005 11007 11008 11010 11011 11012 11013 11013 11014 11015 11017 11018 11020 11021 11021 11022 11023 11023 11023 11024 11023 11023 11022 11021 11020 11019 11017
10905 10904 10902 10901 10900 10900 10899 10898 10897 10897 10896 10894 10893 10893 10892 10891 10891 10891 10892 10892 10892 10891 10892 10893 10895 10897 10898 10900 10903 10906 10909 10912 10915 10918 10921 10925 10929 10931 10934 10937 10940 10942 10945 10949 10952 10955 10958 10961 10965 10969 10973 10977 10980 10984 10987 10991 10993 10996 10998 11000 11002 11004 11006 11008 11010 11010 11012 11013 11013 11014 11015 11016 11018 11019 11021 11021 11022 11023 11023 11023 11024 11024 11023 11023 11022 11021 11020 11019
10903 10901 10899 10898 10896 10895 10894 10893 10893 10892 10891 10890 10889 10888 10887 10886 10886 10886 10886 10886 10887 10887 10887 10888 10889 10891 10893 10895 10897 10900 10903 10906 10909 10912 10915 10920 10923 10926 10929 10931 10935 10937 10941 10945 10948 10951 10954 10957 10961 10966 10970 10974 10978 10981 10985 10988 10991 10994 10996 10999 11001 11003 11006 11008 11009 11010 11011 11012 11013 11014 11015 11016 11018 11019 11020 11021 11022 11023 11023 11024 11025 11024 11024 11023 11023 11023 11021 11020
10900 10898 10897 10895 10893 10891 10890 10888 10887 10887 10885 10885 10884 10883 10882 10881 10880 10880 10880 10880 10880 10881 10882 10883 10884 10885 10887 10889 10891 10893 10897 10900 10902 10906 10909 10914 10917 10920 10923 10926 10930 10933 10936 10940 10944 10947 10950 10953 10957 10962 10968 10972 10975 10978 10981 10984 10988 10991 10994 10997 11000 11003 11006 11009 11009 11009 11010 11011 11013 11014 11015 11016 11017 11019 11020 11021 11022 11022 11023 11024 11025 11025 11024 11024 11024 11024 11022 11021
10897 10895 10893 10891 10889 10887 10885 10884 10882 10881 10879 10878 10877 10877 10876 10875 10874 10874 10873 10874 10874 10874 10875 10876 10878 10879 10881 10883 10885 10887 10890 10893 10896 10899 10903 10907 10911 10914 10918 10921 10925 10928 10930 10934 10938 10942 10946 10949 10954 10960 10964 10968 10971 10974 10977 10981 10985 10989 10992 10995 10998 11001 11005 11007 11006 11007 11009 11010 11012 11013 11014 11014 11016 11018 11019 11021 11022 11022 11023 11024 11025 11025 11025 11025 11025 11025 11024 11023
10892 10890 10888 10886 10885 10883 10881 10879 10876 10875 10873 10872 10870 10870 10869 10868 10867 10866 10866 10866 10867 10867 10868 10869 10871 10872 10874 10876 10878 10881 10883 10886 10889 10893 10896 10900 10904 10908 10911 10914 10919 10922 10925 10929 10933 10938 10942 10947 10952 10956 10960 10964 10967 10970 10974 10979 10983 10987 10990 10993 10996 11000 11002 11002 11002 11005 11008 11010 11012 11012 11013 11014 11015 11017 11019 11021 11022 11023 11023 11024 11025 11025 11025 11025 11025 11025 11025 11024
10887 10885 10883 10881 10879 10877 10875 10872 10870 10868 10866 10865 10863 10862 10861 10860 10859 10858 10857 10858 10859 10860 10861 10862 10864 10866 10868 10870 10872 10875 10877 10879 10882 10885 10888 10892 10896 10901 10904 10908 10913 10917 10920 10924 10929 10935 10940 10945 10948 10952 10957 10960 10962 10967 10971 10976 10979 10984 10988 10991 10995 10999 11000 11000 11003 11006 11007 11010 11011 11012 11013 11014 11015 11017 11018 11020 11022 11023 11023 11024 11025 11026 11026 11026 11026 11026 11025 11025
10882 10879 10877 10875 10873 10871 10868 10866 10863 10861 10859 10857 10856 10854 10853 10852 10851 10850 10849 10849 10850 10851 10853 10854 10856 10858 10860 10863 10865 10867 10869 10871 10873 10876 10880 10885 10889 10894 10898 10902 10907 10911 10915 10920 10926 10932 10937 10940 10943 10948 10952 10954 10958 10963 10967 10971 10975 10980 10985 10989 10993 10995 10997 11001 11005 11006 11007 11009 11010 11010 11012 11013 11014 11015 11017 11018 11020 11022 11023 11024 11025 11025 11026 11027 11027 11026 11026 11026
10876 10873 10871 10868 10866 10863 10861 10858 10855 10853 10850 10848 10847 10845 10844 10843 10842 10840 10840 10840 10841 10842 10844 10845 10847 10850 10852 10855 10857 10858 10860 10862 10865 10869 10874 10879 10883 10887 10892 10897 10902 10906 10911 10916 10922 10928 10932 10935 10939 10943 10946 10949 10955 10959 10962 10967 10972 10976 10981 10985 10989 10991 10995 11001 11004 11005 11007 11009 11010 11009 11009 11011 11012 11013 11014 11016 11018 11020 11022 11023 11024 11025 11026 11027 11027 11027 11027 11026
10870 10867 10864 10861 10858 10855 10852 10849 10846 10843 10841 10838 10836 10835 10834 10833 10831 10830 10830 10830 10831 10832 10834 10836 10839 10841 10844 10846 10847 10849 10852 10855 10858 10863 10868 10873 10877 10881 10886 10891 10896 10901 10906 10912 10917 10922 10926 10929 10934 10936 10940 10946 10951 10954 10958 10963 10968 10972 10976 10981 10984 10988 10992 10997 11000 11002 11005 11007 11008 11008 11008 11009 11011 11012 11013 11014 11016 11019 11021 11022 11023 11025 11026 11027 11028 11028 11027 11027
10863 10860 10857 10854 10850 10846 10843 10839 10836 10833 10830 10827 10825 10823 10822 10820 10819 10819 10819 10819 10820 10822 10824 10827 10829 10831 10834 10836 10837 10840 10844 10849 10853 10857 10861 10866 10870 10874 10879 10885 10890 10895 10901 10907 10912 10917 10920 10924 10926 10929 10936 10942 10945 10949 10953 10958 10963 10967 10971 10976 10981 10986 10990 10994 10997 10999 11001 11002 11004 11005 11006 11008 11009 11011 11012 11013 11015 11017 11020 11021 11022 11024 11025 11027 11028 11028 11028 11027
10856 10853 10849 10845 10841 10837 10833 10829 10825 10821 10818 10815 10812 10810 10808 10807 10806 10806 10807 10807 10809 10810 10813 10816 10818 10821 10824 10825 10829 10833 10838 10843 10847 10849 10853 10857 10862 10866 10871 10877 10883 10888 10895 10901 10906 10910 10914 10917 10920 10926 10932 10936 10940 10944 10948 10953 10957 10961 10966 10972 10978 10982 10987 10991 10993 10995 10996 10997 11000 11002 11005 11007 11008 11010 11011 11013 11013 11015 11018 11020 11022 11023 11024 11026 11028 11028 11029 11028
10849 10845 10840 10836 10831 10827 10822 10818 10813 10809 10805 10801 10798 10795 10794 10793 10792 10792 10793 10794 10796 10798 10800 10803 10807 10810 10813 10816 10820 10825 10830 10835 10838 10840 10844 10849 10853 10858 10862 10868 10874 10881 10888 10894 10899 10903 10907 10911 10916 10921 10926 10930 10935 10939 10943 10946 10949 10955 10962 10968 10973 10978 10982 10986 10989 10990 10991 10994 10997 11000 11003 11005 11006 11008 11010 11012 11012 11014 11016 11019 11021 11022 11024 11025 11027 11028 11029 11028
10841 10836 10831 10826 10821 10816 10811 10806 10801 10795 10791 10786 10783 10779 10778 10777 10777 10777 10778 10780 10782 10785 10787 10790 10794 10798 10802 10806 10810 10815 10820 10824 10827 10830 10834 10838 10843 10849 10854 10861 10867 10875 10882 10887 10892 10896 10900 10905 10911 10915 10920 10924 10929 10933 10934 10937 10942 10951 10959 10963 10968 10973 10977 10981 10984 10986 10987 10990 10993 10996 10999 11002 11004 11007 11009 11011 11012 11012 11015 11018 11020 11021 11023 11024 11026 11027 11028 11028
10833 10828 10822 10816 10810 10805 10799 10793 10787 10781 10775 10771 10767 10763 10761 10761 10760 10760 10761 10764 10767 10770 10773 10776 10780 10785 10790 10794 10798 10803 10807 10811 10815 10820 10824 10829 10834 10840 10846 10852 10859 10867 10874 10879 10884 10889 10894 10900 10905 10910 10912 10914 10918 10922 10926 10932 10940 10948 10955 10960 10964 10968 10972 10976 10979 10982 10984 10987 10990 10992 10995 10999 11002 11005 11008 11010 11011 11011 11013 11016 11018 11020 11022 11024 11025 11026 11027 11028
10825 10818 10812 10805 10799 10793 10787 10780 10772 10765 10759 10754 10749 10746 10743 10743 10742 10742 10745 10747 10750 10754 10758 10762 10766 10772 10778 10781 10786 10790 10795 10801 10807 10812 10816 10821 10827 10832 10839 10844 10850 10858 10865 10870 10876 10881 10887 10894 10899 10900 10899 10902 10908 10916 10923 10930 10937 10943 10950 10955 10959 10963 10967 10971 10975 10978 10981 10984 10987 10990 10992 10996 10999 11003 11005 11008 11010 11010 11011 11014 11017 11019 11021 11023 11025 11025 11026 11027
10816 10809 10802 10795 10788 10781 10774 10765 10757 10749 10743 10737 10732 10728 10725 10725 10725 10725 10728 10731 10734 10739 10743 10747 10753 10759 10764 10768 10773 10778 10783 10790 10797 10802 10807 10813 10819 10825 10831 10837 10843 10849 10855 10861 10868 10873 10881 10887 10889 10887 10889 10896 10905 10914 10921 10927 10932 10938 10945 10950 10953 10957 10961 10966 10970 10974 10977 10980 10982 10985 10988 10992 10995 10998 11001 11004 11007 11009 11009 11012 11015 11018 11020 11022 11023 11024 11026 11027
10808 10800 10792 10784 10776 10768 10760 10751 10742 10734 10727 10720 10715 10711 10709 10709 10709 10710 10712 10715 10719 10724 10728 10733 10739 10745 10751 10756 10760 10766 10772 10779 10787 10792 10797 10804 10809 10815 10821 10828 10834 10840 10846 10853 10860 10866 10874 10876 10875 10878 10885 10894 10902 10909 10915 10922 10928 10933 10939 10944 10947 10952 10956 10960 10965 10969 10973 10975 10977 10981 10984 10988 10991 10994 10996 11000 11004 11007 11008 11010 11012 11015 11018 11020 11022 11023 11024 11026
10800 10791 10782 10774 10765 10756 10747 10737 10727 10718 10711 10706 10701 10697 10696 10695 10695 10696 10698 10701 10705 10709 10714 10719 10725 10731 10737 10742 10748 10754 10761 10769 10776 10782 10787 10794 10799 10805 10812 10817 10823 10830 10837 10845 10852 10859 10863 10862 10864 10873 10882 10889 10896 10902 10909 10917 10923 10927 10932 10937 10941 10946 10950 10955 10960 10965 10968 10970 10973 10978 10981 10985 10989 10991 10993 10995 10999 11004 11006 11008 11010 11013 11016 11018 11020 11021 11022 11024
10792 10783 10773 10763 10754 10743 10734 10724 10713 10704 10698 10694 10690 10687 10685 10685 10685 10686 10687 10690 10693 10697 10701 10706 10713 10719 10725 10731 10737 10743 10749 10757 10765 10771 10777 10784 10791 10797 10802 10808 10814 10822 10829 10836 10844 10849 10850 10850 10859 10870 10877 10883 10890 10896 10903 10911 10917 10921 10925 10930 10935 10940 10945 10951 10955 10959 10963 10966 10970 10974 10978 10982 10986 10989 10991 10993 10997 11001 11004 11007 11009 11010 11013 11015 11018 11020 11021 11022
10784 10775 10764 10754 10743 10732 10721 10710 10701 10693 10688 10684 10681 10678 10677 10677 10677 10677 10679 10681 10684 10687 10690 10695 10702 10708 10715 10721 10726 10732 10739 10747 10755 10762 10768 10774 10782 10788 10794 10800 10807 10814 10821 10828 10835 10838 10839 10845 10858 10866 10871 10878 10884 10890 10898 10906 10911 10915 10918 10922 10928 10934 10940 10946 10950 10953 10957 10961 10965 10970 10975 10980 10984 10986 10989 10991 10995 10998 11000 11004 11006 11008 11010 11013 11016 11019 11020 11020
10776 10767 10756 10744 10732 10721 10709 10699 10690 10684 10679 10676 10673 10671 10670 10670 10670 10670 10672 10674 10677 10679 10682 10686 10692 10698 10705 10710 10716 10723 10730 10737 10745 10752 10759 10766 10773 10779 10786 10792 10799 10806 10813 10820 10826 10828 10832 10842 10852 10859 10865 10872 10879 10885 10893 10900 10906 10909 10911 10914 10922 10929 10935 10940 10943 10947 10951 10956 10962 10968 10973 10978 10980 10983 10986 10989 10992 10995 10997 11000 11003 11005 11008 11010 11013 11016 11018 11019
10768 10758 10747 10735 10722 10710 10699 10690 10682 10677 10672 10669 10667 10665 10664 10664 10664 10665 10666 10668 10670 10673 10675 10679 10684 10690 10696 10701 10707 10714 10720 10727 10734 10742 10750 10757 10764 10770 10777 10783 10790 10798 10805 10812 10818 10820 10826 10836 10844 10852 10859 10867 10874 10879 10885 10892 10899 10901 10901 10907 10916 10923 10928 10934 10937 10942 10947 10954 10961 10966 10969 10973 10976 10979 10982 10985 10990 10992 10994 10997 11000 11003 11005 11008 11010 11014 11016 11017
10761 10750 10739 10726 10713 10700 10690 10682 10676 10671 10667 10664 10661 10659 10659 10659 10660 10660 10661 10662 10664 10667 10669 10673 10677 10682 10688 10693 10699 10704 10710 10717 10724 10733 10742 10748 10755 10761 10767 10773 10781 10789 10797 10805 10808 10812 10820 10830 10837 10846 10854 10862 10867 10870 10875 10885 10890 10890 10892 10901 10909 10915 10922 10927 10931 10937 10944 10952 10957 10961 10964 10967 10970 10974 10977 10982 10987 10990 10992 10994 10997 11000 11003 11005 11008 11011 11013 11015
10753 10742 10731 10718 10704 10692 10682 10676 10671 10667 10662 10659 10657 10655 10655 10654 10655 10656 10657 10658 10660 10661 10664 10667 10671 10675 10680 10685 10690 10695 10701 10708 10716 10725 10732 10739 10746 10752 10758 10765 10773 10782 10790 10797 10800 10806 10816 10825 10833 10842 10850 10856 10858 10861 10869 10878 10879 10879 10886 10895 10902 10909 10916 10921 10927 10933 10941 10948 10953 10956 10959 10962 10965 10969 10973 10978 10983 10987 10989 10992 10995 10998 11000 11002 11005 11008 11010 11012
10746 10735 10723 10710 10696 10685 10676 10670 10666 10662 10659 10656 10654 10652 10651 10651 10651 10652 10653 10655 10656 10657 10659 10662 10666 10669 10672 10677 10682 10687 10693 10700 10707 10715 10722 10729 10736 10743 10751 10759 10768 10776 10784 10789 10793 10801 10812 10821 10828 10837 10843 10846 10848 10854 10863 10869 10869 10873 10883 10890 10896 10903 10910 10917 10924 10930 10938 10943 10947 10950 10954 10957 10961 10965 10970 10975 10979 10983 10986 10990 10993 10995 10997 10999 11002 11005 11007 11009
10740 10728 10716 10702 10689 10679 10671 10666 10661 10658 10655 10653 10651 10650 10649 10648 10648 10649 10650 10651 10653 10655 10656 10659 10662 10665 10667 10671 10676 10681 10686 10692 10699 10706 10714 10722 10729 10737 10745 10754 10762 10770 10778 10782 10787 10797 10807 10815 10822 10828 10831 10833 10838 10846 10853 10857 10862 10871 10881 10886 10892 10899 10906 10915 10922 10929 10936 10938 10939 10944 10948 10953 10957 10960 10966 10971 10976 10979 10982 10986 10989 10991 10993 10996 10999 11002 11004 11006
10734 10722 10709 10696 10684 10674 10668 10662 10658 10655 10652 10651 10649 10648 10647 10647 10646 10647 10648 10649 10650 10652 10654 10656 10658 10661 10663 10666 10671 10676 10681 10687 10694 10701 10709 10717 10724 10731 10739 10747 10755 10763 10769 10774 10780 10789 10799 10807 10813 10817 10820 10824 10830 10838 10844 10850 10858 10869 10876 10881 10889 10895 10902 10911 10918 10926 10931 10929 10931 10938 10944 10948 10951 10957 10964 10968 10972 10976 10978 10982 10986 10988 10990 10993 10996 10999 11001 11004
10728 10716 10704 10691 10679 10671 10665 10660 10656 10653 10650 10649 10647 10646 10646 10646 10645 10646 10646 10647 10648 10650 10651 10653 10654 10656 10659 10662 10666 10671 10675 10682 10688 10694 10703 10710 10716 10723 10730 10738 10745 10752 10758 10763 10770 10780 10789 10797 10802 10806 10810 10816 10824 10831 10837 10844 10853 10862 10869 10875 10883 10890 10898 10906 10914 10921 10922 10919 10925 10933 10939 10943 10947 10956 10962 10964 10968 10972 10975 10978 10981 10984 10987 10990 10993 10996 10998 11001
10723 10711 10699 10687 10676 10668 10663 10658 10654 10652 10649 10647 10646 10645 10644 10644 10644 10644 10645 10645 10646 10647 10649 10650 10651 10653 10655 10658 10662 10665 10669 10675 10681 10687 10694 10701 10707 10714 10721 10729 10736 10743 10748 10754 10763 10773 10781 10787 10792 10796 10802 10810 10818 10823 10828 10834 10843 10853 10859 10866 10874 10882 10891 10897 10904 10909 10906 10906 10916 10926 10934 10938 10943 10952 10957 10958 10964 10968 10971 10975 10977 10980 10983 10986 10989 10992 10996 10999
10718 10707 10695 10683 10674 10666 10661 10657 10653 10651 10649 10647 10646 10644 10643 10643 10643 10643 10643 10644 10644 10645 10646 10648 10649 10649 10651 10654 10657 10660 10664 10669 10674 10680 10686 10692 10699 10706 10713 10719 10727 10734 10740 10747 10756 10765 10773 10779 10783 10788 10796 10804 10808 10812 10817 10825 10834 10843 10851 10860 10869 10877 10882 10886 10891 10893 10891 10897 10912 10922 10929 10931 10936 10944 10950 10954 10959 10963 10967 10970 10972 10976 10979 10982 10985 10989 10993 10996
10714 10703 10692 10680 10671 10665 10659 10655 10652 10650 10648 10646 10645 10644 10643 10642 10642 10642 10642 10642 10642 10643 10644 10645 10646 10646 10648 10651 10653 10655 10658 10663 10668 10673 10679 10685 10691 10697 10704 10711 10717 10724 10732 10740 10749 10756 10762 10768 10772 10780 10789 10794 10797 10803 10810 10817 10825 10835 10845 10856 10864 10867 10870 10874 10880 10882 10884 10897 10911 10918 10921 10924 10930 10939 10945 10950 10954 10957 10961 10965 10967 10971 10974 10978 10981 10984 10989 10992
10710 10700 10689 10678 10669 10663 10658 10654 10651 10648 10647 10645 10644 10643 10642 10642 10641 10641 10641 10640 10640 10641 10642 10643 10643 10643 10644 10646 10648 10650 10653 10658 10661 10665 10671 10677 10683 10689 10696 10702 10709 10716 10724 10732 10740 10747 10753 10758 10764 10772 10779 10784 10790 10797 10802 10807 10815 10826 10837 10846 10849 10852 10859 10867 10872 10875 10882 10895 10906 10911 10915 10918 10926 10934 10940 10944 10948 10950 10955 10959 10962 10966 10969 10974 10977 10980 10985 10988
10706 10696 10686 10675 10667 10661 10656 10652 10649 10647 10646 10644 10643 10642 10641 10640 10640 10640 10640 10638 10637 10637 10638 10638 10638 10638 10639 10640 10643 10645 10648 10651 10654 10658 10664 10669 10675 10682 10688 10694 10700 10707 10716 10724 10732 10739 10745 10750 10756 10763 10770 10776 10782 10787 10791 10797 10806 10815 10825 10832 10836 10844 10854 10860 10865 10870 10878 10888 10898 10904 10909 10914 10922 10929 10933 10937 10941 10944 10948 10953 10957 10961 10965 10970 10973 10976 10980 10984
10704 10694 10683 10673 10665 10659 10654 10651 10648 10646 10644 10643 10641 10640 10640 10639 10639 10638 10637 10636 10634 10633 10633 10632 10632 10631 10632 10634 10636 10638 10641 10644 10648 10653 10658 10662 10668 10675 10681 10687 10693 10699 10707 10715 10723 10729 10735 10741 10749 10755 10760 10767 10772 10776 10782 10789 10797 10806 10815 10823 10831 10840 10848 10852 10858 10864 10870 10880 10889 10896 10902 10909 10916 10922 10926 10930 10935 10939 10943 10948 10952 10956 10960 10964 10967 10971 10975 10978
10702 10692 10682 10672 10663 10657 10652 10649 10646 10644 10642 10641 10640 10639 10638 10638 10637 10635 10633 10632 10630 10628 10626 10625 10624 10624 10625 10627 10629 10631 10633 10637 10641 10646 10651 10655 10662 10669 10675 10681 10687 10693 10699 10705 10713 10720 10726 10733 10741 10746 10752 10758 10762 10767 10774 10782 10789 10796 10806 10816 10824 10832 10839 10847 10853 10859 10865 10874 10882 10889 10897 10904 10908 10913 10917 10922 10928 10933 10936 10941 10945 10950 10954 10958 10961 10965 10969 10973
10700 10690 10680 10671 10662 10656 10651 10648 10645 10642 10640 10639 10638 10637 10636 10635 10634 10632 10630 10627 10624 10622 10619 10617 10616 10616 10617 10619 10621 10623 10627 10631 10635 10639 10644 10649 10655 10662 10668 10675 10681 10687 10693 10698 10704 10711 10718 10725 10732 10737 10743 10749 10753 10760 10768 10774 10779 10786 10796 10806 10815 10824 10833 10842 10848 10854 10861 10869 10877 10885 10892 10897 10900 10905 10910 10915 10921 10926 10929 10933 10938 10942 10947 10952 10956 10960 10964 10967
10698 10689 10679 10670 10662 10655 10650 10647 10644 10641 10639 10638 10637 10636 10635 10633 10631 10629 10626 10622 10618 10615 10612 10610 10609 10609 10610 10612 10614 10616 10620 10624 10628 10633 10638 10643 10649 10655 10661 10668 10674 10680 10686 10692 10697 10703 10710 10717 10723 10729 10735 10741 10747 10754 10760 10764 10770 10778 10787 10798 10807 10817 10828 10836 10843 10850 10856 10863 10871 10880 10886 10891 10896 10900 10904 10908 10913 10918 10923 10926 10931 10936 10941 10945 10950 10955 10959 10963
10695 10687 10678 10668 10661 10655 10650 10646 10643 10641 10638 10637 10635 10634 10632 10631 10628 10626 10622 10618 10614 10609 10606 10603 10602 10603 10604 10605 10607 10610 10614 10618 10622 10627 10631 10637 10643 10649 10655 10660 10666 10673 10679 10684 10691 10697 10704 10710 10715 10721 10728 10734 10740 10746 10750 10755 10763 10771 10780 10790 10800 10809 10820 10828 10835 10842 10848 10855 10865 10873 10879 10885 10889 10892 10896 10901 10907 10912 10917 10920 10924 10928 10934 10939 10944 10950 10954 10957
10691 10683 10675 10666 10659 10653 10649 10645 10643 10640 10637 10635 10633 10631 10629 10628 10626 10623 10619 10614 10609 10605 10601 10599 10598 10598 10598 10599 10602 10605 10608 10611 10616 10621 10626 10631 10636 10641 10647 10652 10658 10664 10670 10676 10683 10690 10697 10702 10706 10712 10719 10726 10731 10736 10741 10748 10755 10763 10772 10783 10793 10803 10813 10820 10827 10834 10840 10847 10856 10866 10873 10877 10879 10884 10889 10894 10900 10905 10910 10913 10915 10920 10926 10931 10937 10942 10946 10949
10689 10681 10673 10664 10657 10651 10646 10643 10640 10638 10635 10632 10630 10628 10626 10624 10623 10620 10616 10611 10606 10601 10598 10595 10594 10594 10594 10595 10597 10599 10602 10605 10609 10614 10619 10624 10628 10633 10639 10645 10650 10656 10662 10669 10676 10683 10689 10694 10699 10703 10710 10717 10721 10727 10733 10740 10749 10758 10767 10777 10787 10797 10806 10812 10819 10827 10834 10840 10848 10857 10864 10866 10870 10877 10883 10886 10891 10896 10901 10904 10907 10912 10918 10924 10930 10935 10939 10942
10687 10679 10671 10663 10655 10649 10644 10640 10637 10635 10632 10630 10627 10625 10623 10622 10620 10618 10614 10609 10603 10599 10595 10593 10591 10590 10591 10591 10593 10595 10597 10600 10604 10608 10613 10617 10622 10627 10633 10639 10644 10648 10655 10662 10668 10675 10680 10686 10692 10695 10701 10708 10713 10719 10727 10735 10745 10755 10763 10771 10780 10788 10797 10805 10813 10822 10828 10833 10840 10848 10854 10857 10862 10869 10874 10878 10883 10888 10893 10897 10900 10904 10910 10917 10923 10928 10931 10934
10685 10677 10670 10662 10654 10648 10643 10639 10635 10633 10630 10628 10626 10624 10622 10619 10617 10615 10612 10607 10602 10598 10594 10591 10589 10588 10588 10589 10590 10591 10593 10596 10599 10603 10607 10611 10616 10621 10627 10632 10637 10642 10648 10654 10661 10668 10673 10678 10684 10688 10693 10701 10709 10716 10723 10731 10740 10749 10755 10762 10771 10779 10788 10797 10806 10813 10819 10825 10832 10841 10847 10849 10853 10857 10863 10868 10874 10880 10885 10889 10894 10898 10903 10910 10917 10922 10925 10927
10684 10675 10668 10661 10654 10647 10642 10638 10635 10632 10629 10626 10624 10622 10620 10617 10615 10613 10610 10606 10601 10597 10594 10591 10588 10587 10587 10587 10587 10588 10590 10592 10595 10599 10602 10606 10611 10616 10621 10626 10631 10636 10641 10648 10654 10660 10666 10670 10675 10681 10687 10697 10706 10712 10717 10724 10732 10741 10747 10754 10763 10771 10779 10789 10797 10804 10811 10817 10824 10831 10837 10840 10844 10849 10854 10860 10866 10871 10876 10881 10886 10891 10896 10902 10908 10914 10917 10920
10682 10674 10666 10659 10652 10646 10640 10637 10634 10631 10628 10625 10623 10621 10618 10616 10613 10611 10608 10605 10601 10597 10594 10591 10588 10586 10585 10585 10586 10586 10587 10589 10591 10594 10597 10601 10605 10610 10616 10620 10625 10629 10635 10641 10646 10652 10658 10662 10668 10674 10681 10690 10700 10705 10709 10715 10723 10732 10740 10747 10755 10763 10771 10779 10787 10795 10802 10809 10816 10822 10828 10832 10836 10842 10847 10853 10859 10863 10867 10871 10877 10882 10887 10893 10899 10905 10909 10913
10680 10673 10665 10657 10651 10645 10639 10635 10632 10629 10627 10624 10622 10619 10617 10615 10613 10609 10606 10604 10600 10597 10593 10591 10588 10586 10584 10583 10584 10585 10585 10586 10588 10590 10593 10597 10600 10605 10609 10614 10619 10623 10629 10634 10640 10645 10650 10654 10660 10668 10675 10683 10691 10697 10703 10710 10717 10725 10733 10739 10746 10754 10762 10769 10777 10786 10794 10802 10808 10815 10821 10826 10830 10834 10839 10845 10850 10853 10856 10861 10866 10872 10878 10884 10890 10896 10901 10905
10678 10671 10663 10656 10649 10644 10638 10634 10631 10628 10625 10623 10621 10618 10616 10614 10612 10609 10606 10603 10600 10597 10593 10591 10588 10586 10584 10583 10582 10583 10583 10583 10585 10587 10589 10592 10596 10600 10604 10609 10613 10618 10623 10628 10633 10638 10642 10647 10654 10661 10668 10676 10683 10689 10696 10702 10709 10716 10723 10729 10736 10743 10750 10758 10767 10776 10785 10794 10801 10808 10815 10820 10822 10825 10830 10835 10839 10842 10846 10851 10856 10863 10870 10875 10881 10887 10893 10897
10676 10668 10661 10654 10647 10641 10637 10633 10629 10626 10623 10621 10619 10617 10615 10613 10611 10609 10606 10602 10599 10597 10594 10591 10589 10587 10585 10583 10582 10581 10581 10582 10582 10584 10586 10588 10592 10595 10599 10604 10608 10612 10616 10621 10627 10632 10636 10641 10647 10654 10661 10668 10676 10682 10687 10692 10698 10705 10712 10719 10726 10732 10739 10748 10758 10766 10776 10786 10793 10799 10805 10809 10812 10815 10820 10825 10829 10833 10838 10843 10849 10855 10861 10866 10871 10877 10883 10888